Weather History for Chillicothe, MO

Change the Weather History Date:

Tuesday, February 19, 2013

  Actual Average (KIRK) Record (KIRK)
Temperature  
Mean Temperature 22 °F 31 °F  
Max Temperature 28 °F 40 °F 72 °F (1930)
Min Temperature 16 °F 22 °F -10 °F (1936)
Degree Days  
Heating Degree Days 43 34  
Month to date heating degree days 693  
Since 1 July heating degree days 4240  
Cooling Degree Days 0 0  
Month to date cooling degree days 0  
Year to date cooling degree days 0  
Moisture  
Dew Point 7 °F    
Average Humidity 54    
Maximum Humidity 68    
Minimum Humidity 35    
Precipitation  
Precipitation 0.00 in 0.05 in 0.77 in (2002)
Month to date precipitation 1.02  
Year to date precipitation 2.29  
Sea Level Pressure  
Sea Level Pressure 30.28 in    
Wind  
Wind Speed 13 mph (NW)    
Max Wind Speed 17 mph    
Max Gust Speed 26 mph    
T = Trace of Precipitation, MM = Missing Value Source: NWS Daily Summary

Daily Weather History Graph

Daily Weather History Graph

Search for Another Location

Airport:

Trip Planner

Search our weather history database for the weather conditions in past years. The results will help you decide how hot, cold, wet, or windy it might be!

Date:

Astronomy

Feb. 19, 2013 Rise Set
Actual Time 7:01 AM CST 5:55 PM CST
Civil Twilight 6:33 AM CST 6:22 PM CST
Nautical Twilight 6:02 AM CST 6:54 PM CST
Astronomical Twilight 5:31 AM CST 7:25 PM CST
Moon 12:27 PM CST (2/19) 2:33 AM CST (2/19)
Length of Visible Light 11h 49m
Length of Day
10h 54m
Waxing Gibbous, 67% of the Moon is Illuminated
Feb 19
Waxing Gibbous
Feb 25
Full
Mar 4
Last Quarter
Mar 11
New
Mar 19
First Quarter

Hourly Weather History & Observations

Time (CST) Temp. Windchill Dew Point Humidity Pressure Visibility Wind Dir Wind Speed Gust Speed Precip Events Conditions
12:52 AM 24.1 °F 10.6 °F 10.9 °F 57% 30.08 in - WNW 17.3 mph 23.0 mph N/A   Unknown
1:52 AM 23.0 °F 11.7 °F 10.9 °F 60% 30.10 in - WNW 11.5 mph 20.7 mph N/A   Unknown
2:52 AM 23.0 °F 11.1 °F 12.0 °F 63% 30.12 in - WNW 12.7 mph 23.0 mph N/A   Unknown
3:52 AM 21.9 °F 9.8 °F 12.9 °F 68% 30.12 in - NW 12.7 mph 21.9 mph N/A   Unknown
4:52 AM 21.0 °F 8.1 °F 10.9 °F 65% 30.15 in - NW 13.8 mph 25.3 mph N/A   Unknown
5:52 AM 18.0 °F 6.1 °F 7.0 °F 62% 30.19 in - WNW 10.4 mph 18.4 mph N/A   Unknown
6:52 AM 16.0 °F 3.6 °F 6.1 °F 65% 30.23 in - WNW 10.4 mph 19.6 mph N/A   Unknown
7:52 AM 16.0 °F 4.4 °F 6.1 °F 65% 30.26 in - NW 9.2 mph 19.6 mph N/A   Unknown
8:52 AM 17.1 °F 2.5 °F 7.0 °F 65% 30.29 in - NW 15.0 mph 21.9 mph N/A   Unknown
9:52 AM 18.0 °F 3.1 °F 7.0 °F 62% 30.30 in - WNW 16.1 mph 25.3 mph N/A   Unknown
10:52 AM 19.9 °F 5.2 °F 7.0 °F 57% 30.32 in - NW 17.3 mph 26.5 mph N/A   Unknown
11:52 AM 23.0 °F 9.2 °F 6.1 °F 48% 30.34 in - NW 17.3 mph 26.5 mph N/A   Unknown
12:52 PM 26.1 °F 13.6 °F 8.1 °F 47% 30.33 in - WNW 16.1 mph 21.9 mph N/A   Unknown
1:52 PM 28.0 °F 17.5 °F 7.0 °F 41% 30.33 in - WNW 12.7 mph 24.2 mph N/A   Unknown
2:52 PM 28.0 °F 16.1 °F 5.0 °F 38% 30.33 in - WNW 16.1 mph 23.0 mph N/A   Unknown
3:52 PM 28.9 °F 19.8 °F 5.0 °F 36% 30.34 in - WNW 10.4 mph - N/A   Unknown
4:52 PM 28.9 °F 18.2 °F 3.9 °F 35% 30.34 in - NW 13.8 mph 20.7 mph N/A   Unknown
6:52 PM 25.0 °F 18.1 °F 3.9 °F 41% 30.35 in - WNW 5.8 mph - N/A   Unknown
7:52 PM 21.0 °F 14.6 °F 7.0 °F 55% 30.36 in - WNW 4.6 mph - N/A   Unknown
8:52 PM 21.9 °F 14.5 °F 3.9 °F 46% 30.38 in - NNW 5.8 mph - N/A   Unknown
9:52 PM 19.9 °F - 3.9 °F 50% 30.42 in - Calm Calm - N/A   Unknown
10:52 PM 19.0 °F 12.3 °F 3.0 °F 50% 30.41 in - NNW 4.6 mph - N/A   Unknown
11:52 PM 17.1 °F 11.7 °F 3.9 °F 56% 30.43 in - NW 3.5 mph - N/A   Unknown